This is the latest recevied weather packets stored in our database for station/object LX0APE-4. If no packets are shown the sender has not sent any weather packets the latest 10 day(s).
| Time | Temp. | Humidity | Pressure | Rain* | Wind** | Luminosity | Snow |
|---|---|---|---|---|---|---|---|
| 1778059010 | 12.22° C | 86% | 5002.9 hPa | 0.51 mm | - | - | - |
| 1778058710 | 12.78° C | 85% | 5002.9 hPa | 0 mm | - | - | - |
| 1778058410 | 12.78° C | 85% | 5002.7 hPa | 0 mm | - | - | - |
| 1778058110 | 13.89° C | 83% | 5002.8 hPa | 0 mm | - | - | - |
| 1778057810 | 14.44° C | 83% | 5002.7 hPa | 0 mm | - | - | - |
| 1778057510 | 14.44° C | 84% | 5002.6 hPa | 0 mm | - | - | - |
| 1778057210 | 14.44° C | 84% | 5002.6 hPa | 0 mm | - | - | - |
| 1778056910 | 14.44° C | 86% | 5002.5 hPa | 0 mm | - | - | - |
| 1778056610 | 13.89° C | 86% | 5002.5 hPa | 0 mm | - | - | - |
| 1778056310 | 13.33° C | 85% | 5002.6 hPa | 0 mm | - | - | - |
| 1778056010 | 13.89° C | 86% | 5002.6 hPa | 0 mm | - | - | - |
| 1778055710 | 13.33° C | 85% | 5002.6 hPa | 0 mm | - | - | - |
| 1778055410 | 13.89° C | 86% | 5002.6 hPa | 0 mm | - | - | - |
| 1778055110 | 13.89° C | 87% | 5002.4 hPa | 0 mm | - | - | - |
| 1778054810 | 13.33° C | 87% | 5002.3 hPa | 0 mm | - | - | - |
| 1778054510 | 13.33° C | 88% | 5002.4 hPa | 0 mm | - | - | - |
| 1778054210 | 12.78° C | 90% | 5002.4 hPa | 0 mm | - | - | - |
| 1778053910 | 12.78° C | 90% | 5002.4 hPa | 0 mm | - | - | - |
| 1778053610 | 12.78° C | 91% | 5002.4 hPa | 0 mm | - | - | - |
| 1778053310 | 12.22° C | 92% | 5002.4 hPa | 0 mm | - | - | - |
| 1778053010 | 12.22° C | 93% | 5002.4 hPa | 0 mm | - | - | - |
| 1778052710 | 11.67° C | 93% | 5002.5 hPa | 0 mm | - | - | - |
| 1778052410 | 11.11° C | 93% | 5002.6 hPa | 0 mm | - | - | - |
| 1778052117 | 11.11° C | 93% | 5002.6 hPa | 0 mm | - | - | - |
| 1778052110 | 11.11° C | 93% | 5002.6 hPa | 0 mm | - | - | - |
* Rain latest hour (hover to see other rain measurements)
** Current wind speed in m/s (hover to see current wind gust speed)